Regional Weather Roundup
Issued by NWS

Home | Current Version | Previous Version | Text Only | Print | Product List | Glossary On
Versions: 1 2 3 4 5 6 7 8 9 10 11 12 13 14 15 16 17 18 19 20 21 22 23 24 25 26 27 28 29 30 31 32 33 34 35 36 37 38 39 40 41 42 43 44 45 46 47 48 49 50
000
ASUS43 KMKX 281300
RWRWI

WISCONSIN REGIONAL WEATHER ROUNDUP
NATIONAL WEATHER SERVICE MILWAUKEE/SULLIVAN WI
800 AM CDT WED SEP 28 2016

NOTE: "FAIR" INDICATES FEW OR NO CLOUDS BELOW 12,000 FEET WITH NO
SIGNIFICANT WEATHER AND/OR OBSTRUCTIONS TO VISIBILITY.

WIZ001-002-006>008-014>016-023>028-281400-
NORTHWEST WISCONSIN

CITY           SKY/WX    TMP DP  RH WIND       PRES   REMARKS
SUPERIOR ARPT  MOCLDY    52  48  84 N6        30.09R
ASHLAND        CLOUDY    53  50  89 NE15      30.06R
HAYWARD        LGT RAIN  52  49  89 N10       30.04R
SIREN          CLOUDY    52  48  89 N8        30.06R
CUMBERLAND     CLOUDY    50  46  87 N12       30.03R
RICE LAKE      CLOUDY    52  49  90 N8        30.03R
CHETEK         NOT AVBL
LADYSMITH      CLOUDY    52  51  95 N5        30.00R FOG
EAU CLAIRE     NOT AVBL
MENOMONIE      CLOUDY    51  51 100 NW9G16    30.00R
NEW RICHMOND   CLOUDY    50  49  97 N7        30.04R
OSCEOLA        CLOUDY    52  52 100 N8        30.09R
$$

WIZ003>005-009-010-017-018-281400-
NORTH CENTRAL WISCONSIN

CITY           SKY/WX    TMP DP  RH WIND       PRES   REMARKS
MANITOWISH WTR NOT AVBL
ARBOR VITAE    PTSUNNY   52  50  93 NE9G18    29.96R
WOODRUFF       PTSUNNY   52  50  93 NE9G18    29.96R
RHINELANDER    LGT RAIN  51  51 100 VRB7      29.95R FOG
EAGLE RIVER    DRIZZLE   50  50 100 NE12G17   29.96R
LAND O LAKES   PTSUNNY   50  48  95 NE8       29.99R
PHILLIPS       CLOUDY    50  49  96 N9G21     29.97R
TOMAHAWK       CLOUDY    50  49  96 N3        29.95R
MEDFORD        CLOUDY   N/A N/A N/A N7        29.94R
MERRILL        CLOUDY    50  50  98 CALM      29.94R
$$

WIZ029-030-035-036-043>047-281400-
CENTRAL WISCONSIN

CITY           SKY/WX    TMP DP  RH WIND       PRES   REMARKS
WAUSAU         CLOUDY    52  48  86 N5        29.92R
MOSINEE        PTSUNNY   52  50  93 N9        29.93R
MARSHFIELD     CLOUDY    53  47  79 N10       29.93R
STEVENS POINT  CLOUDY    49  49 100 N5        29.91R
WAUPACA        CLOUDY    53  52  95 N6        29.90R
WAUTOMA        CLOUDY    52  50  93 N6        29.91R
WISC RAPIDS    CLOUDY    52  51  97 N8        29.93R
CAMP DOUGLAS   PTSUNNY   50  50 100 NW10      29.92R
$$

WIZ011>013-019>022-031-037>040-048>050-281400-
NORTHEAST WISCONSIN

CITY           SKY/WX    TMP DP  RH WIND       PRES   REMARKS
ANTIGO         RAIN      50  49  99 CALM      29.93R
SHAWANO        CLOUDY    53  49  89 N9        29.91R
OCONTO         NOT AVBL
STURGEON BAY   CLOUDY    53  52  96 NE5       29.89R
GREEN BAY      PTSUNNY   50  50 100 N8        29.89R
MANITOWOC      NOT AVBL
APPLETON       PTSUNNY   50  50 100 N6        29.88R
CLINTONVILLE   NOT AVBL
OSHKOSH        CLOUDY    51  49  92 N8        29.88R
$$

WIZ032>034-041-042-053>061-281400-
SOUTHWEST WISCONSIN

CITY           SKY/WX    TMP DP  RH WIND       PRES   REMARKS
LA CROSSE      CLOUDY    54  51  90 NW10      29.96R
SPARTA         CLOUDY    50  50  99 N5        29.95R
VIROQUA        CLOUDY    49  49 100 NW10      29.94R
BOSCOBEL       CLOUDY    53  49  86 N6        29.94R
PRAIRIE DU CHI CLOUDY    51  47  88 NW8       29.94R
PLATTEVILLE    CLOUDY    49  49 100 NW9       29.92R
$$

WIZ056-057-062-063-064-067-068-281400-
SOUTH CENTRAL WISCONSIN

CITY           SKY/WX    TMP DP  RH WIND       PRES   REMARKS
REEDSBURG      NOT AVBL
BARABOO/DELLS  CLOUDY    49  48  96 NW5       29.90R FOG
LONE ROCK      NOT AVBL
MINERAL POINT  CLOUDY    50  50 100 NW8       29.91R
MADISON        DRIZZLE   50  49  96 N8        29.89R FOG
MIDDLETON      CLOUDY    51  51 100 NW8       29.90R
WATERTOWN      CLOUDY    49  49 100 N8        29.87R
MONROE         CLOUDY    48  46  93 NW8       29.88R
JANESVILLE     CLOUDY    52  50  93 N9        29.87R
$$

WIZ051-052-058>065-066-070>072-281400-
SOUTHEAST WISCONSIN

CITY           SKY/WX    TMP DP  RH WIND       PRES   REMARKS
MILWAUKEE      CLOUDY    53  49  86 N7        29.86R
WAUKESHA       CLOUDY    48  48 100 NW6       29.87R
MILWAUKEE/TIMM PTSUNNY   50  46  87 NW5       29.86R
RACINE         LGT RAIN  52  48  86 N7        29.87R
BURLINGTON     CLOUDY    48  47  97 N5        29.85R FOG
KENOSHA        LGT RAIN  52  49  89 N8        29.85R FOG
FOND DU LAC    RAIN      51  49  92 N8        29.88R FOG
SHEBOYGAN      CLOUDY    50  47  89 NW8       29.87R
WEST BEND      PTSUNNY   46  46 100 N5        29.86R
JUNEAU         CLOUDY    49  47  95 NW8       29.88R
$$

LSZ147-162-281400-
LAKE SUPERIOR

STATION/POSITION TIME  TEMP    WIND        PRES    WAVE
                       AIR SEA DIR/SP/G            HT/PER
                 (UTC) (F)     (DEG/KT/KT) (MB)    (FT/S)
W MID LAKE BUOY  1150   55 52   30/ 21/ 25 1016.0R   6/ 7
DEVILS ISLAND    1200   53      10/ 17/ 19 1017.7R
SAXON HARBOR     1200   56      20/ 22/ 26 1015.9R
$$

LMZ867-665-643>646-281400-
LAKE MICHIGAN

STATION/POSITION TIME  TEMP    WIND        PRES    WAVE
                       AIR SEA DIR/SP/G            HT/PER
                 (UTC) (F)     (DEG/KT/KT) (MB)    (FT/S)
CHAMBERS ISLAND  1200   57      30/  8/ 11 1011.5R
N MID LAKE BUOY  1150   57 66  120/ 12/ 16 1011.4R   2/ 6
NORTHPORT PIER   1100   56      50/  4/  5 1010.5R
SISTER BAY       1238   54      CALM  /  3   N/A
KEWAUNEE LAKESHO 1200   51     310/  4/  6 1010.3R
SHEBOYGAN LAKESH 1200   50     320/  9/ 11 1010.5R
PORT WASHINGTON  1200   50     310/  5/  6 1011.5
ATWATER BUOY     1200   52 54  330/  8/ 10 1010.5R
MILWAUKEE LAKESH 1210   51     340/  6/  8   N/A
S MID LAKE BUOY  1150   56 69  100/  4/  6 1009.6R   1/ 3
KENOSHA   LAKESH 1200   50     330/  6/  7 1010.5R
$$

TC  - TEMPERATURE IN CELSIUS
VSB - VISIBILITY IN STATUTE MILES
WCI - WIND CHILL INDEX
HX  - HEAT INDEX





USA.gov is the U.S. government's official web portal to all federal, state and local government web resources and services.